Location: Hickory_CSC
(35.7330°N, 81.3330°W)
Time: 07:40:52
(UTC-04:00)

ISS - All Passes

Search period start: 18 September 2014 00:00
Search period end: 28 September 2014 00:00
Orbit: 414 x 417 km, 51.6° (Epoch: 18 September)

Date Brightness Start Highest point End Pass type
(mag) Time Alt. Az. Time Alt. Az. Time Alt. Az.
18 Sep - 03:14:00 10° SSW 03:17:07 40° SE 03:20:16 10° ENE night (unlit)
18 Sep - 04:51:22 10° W 04:53:57 20° NNW 04:56:32 10° NNE visible
18 Sep - 09:45:31 10° NNW 09:47:54 18° NNE 09:50:17 10° ENE daylight
18 Sep - 11:21:35 10° WNW 11:24:49 49° SW 11:28:02 10° SSE daylight
19 Sep - 02:25:55 10° S 02:28:29 21° SE 02:31:03 10° E night (unlit)
19 Sep - 04:02:00 10° WSW 04:05:02 32° NW 04:08:05 10° NNE visible
19 Sep - 08:57:22 10° N 08:58:54 13° NNE 09:00:26 10° NE daylight
19 Sep - 10:32:44 10° NW 10:36:04 82° NE 10:39:23 10° SE daylight
20 Sep - 01:38:51 10° SE 01:39:51 11° SE 01:40:51 10° ESE night (unlit)
20 Sep - 03:12:53 10° WSW 03:16:10 58° NW 03:19:28 10° NE night (unlit)
20 Sep - 04:52:38 10° NW 04:53:28 11° NNW 04:54:18 10° N visible
20 Sep - 09:44:02 10° NW 09:47:14 42° NE 09:50:24 10° ESE daylight
20 Sep - 11:21:38 10° W 11:23:40 15° SW 11:25:41 10° SSW daylight
21 Sep - 02:24:02 10° SW 02:27:20 71° SE 02:30:39 10° NE night (unlit)
21 Sep - 04:02:20 10° WNW 04:04:22 15° NNW 04:06:24 10° N visible
21 Sep - 08:55:27 10° NNW 08:58:17 25° NNE 09:01:06 10° E daylight
21 Sep - 10:32:03 10° WNW 10:34:58 29° SW 10:37:52 10° SSE daylight
22 Sep - 01:35:29 10° SSW 01:38:32 35° SE 01:41:36 10° ENE night (unlit)
22 Sep - 03:12:36 10° W 03:15:18 22° NNW 03:17:59 10° NNE night (unlit)
22 Sep - 08:06:58 10° NNW 08:09:13 17° NNE 08:11:28 10° ENE daylight
22 Sep - 09:42:54 10° NW 09:46:10 57° SW 09:49:26 10° SE daylight
23 Sep - 00:47:23 10° S 00:49:46 18° SE 00:52:08 10° E night (unlit)
23 Sep - 02:23:09 10° WSW 02:26:16 36° NW 02:29:23 10° NNE night (unlit)
23 Sep - 07:18:46 10° N 07:20:04 12° NNE 07:21:21 10° NE daylight
23 Sep - 08:53:57 10° NW 08:57:17 71° NE 09:00:35 10° SE daylight
24 Sep - 01:33:58 10° SW 01:37:16 67° NW 01:40:35 10° NE night (unlit)
24 Sep - 03:13:19 10° NW 03:14:30 11° NNW 03:15:41 10° N night (unlit)
24 Sep - 08:05:09 10° NNW 08:08:17 37° NE 08:11:24 10° ESE daylight
24 Sep - 09:42:28 10° W 09:44:45 17° SW 09:47:02 10° S daylight
25 Sep - 00:45:02 10° SW 00:48:18 61° SE 00:51:36 10° NE night (unlit)
25 Sep - 02:23:04 10° WNW 02:25:16 16° NNW 02:27:28 10° NNE night (unlit)
25 Sep - 07:16:26 10° NNW 07:19:10 23° NNE 07:21:53 10° E daylight
25 Sep - 08:52:53 10° WNW 08:55:54 33° SW 08:58:55 10° SSE daylight
25 Sep - 23:56:26 10° SSW 23:59:23 30° SE 00:02:20 10° ENE night (unlit)
26 Sep - 01:33:17 10° W 01:36:04 24° NNW 01:38:53 10° NNE night (unlit)
26 Sep - 06:27:52 10° NNW 06:29:57 15° NNE 06:32:02 10° ENE visible
26 Sep - 08:03:39 10° NW 08:06:57 67° SW 08:10:15 10° SE daylight
26 Sep - 23:08:22 10° SSE 23:10:29 16° SE 23:12:36 10° E night (unlit)
27 Sep - 00:43:45 10° WSW 00:46:55 41° NW 00:50:06 10° NE night (unlit)
27 Sep - 05:39:42 10° N 05:40:38 11° NNE 05:41:35 10° NE visible
27 Sep - 07:14:36 10° NW 07:17:54 61° NE 07:21:11 10° ESE daylight
27 Sep - 08:53:27 10° WSW 08:54:11 11° SW 08:54:55 10° SW daylight
27 Sep - 23:54:29 10° SW 23:57:48 79° NW 00:00:00 20° NE night (unlit)
